Dewpoint
3 1 0 3 1 4 -2 1 2 1 -0 2 2 2 2 2 5 8 8 6 3 2 1 -1 -5 -1 2 2 2 2 3 2 -0 1 3 1 -0 -1 -1 -0 -0 -1 4 4 6
4 4 3 -1 2 3 3 -3 0 -1 -1 2 3 3 -0 1 6 8 7 6 4 1 -1 3 -3 2 2 2 1 2 2 1 0 0 1 0 -0 -1 -2 -2 -1 3 6 6 7
4 5 4 1 2 3 4 4 3 3 3 3 3 1 -0 3 7 6 6 6 4 2 -3 4 2 3 2 1 -0 0 3 -0 -0 1 0 -0 -2 -2 -2 -1 -2 -1 4 5 4
3 2 3 2 3 1 2 2 2 3 3 2 1 1 2 6 6 3 5 5 4 1 1 4 3 2 1 1 -1 -2 -1 0 -2 -2 -1 -2 -2 -3 -3 -4 -3 -2 -2 -1 -0
3 4 4 4 4 3 3 3 5 3 4 4 4 4 5 6 5 -1 0 4 3 -2 1 3 2 1 -1 -2 -2 -2 -2 -3 -3 -4 -4 -3 -4 -4 -5 -5 -5 -2 -0 -1 -1
3 2 3 3 2 4 4 4 4 5 4 3 5 6 6 4 -1 -3 -2 -0 -0 -2 -2 2 1 0 -2 -4 -3 -3 -4 -4 -4 -5 -5 -4 -6 -7 -7 -6 -7 -9 -9 -3 -1
-2 -2 -2 -1 -1 -1 0 2 4 3 3 4 5 6 4 2 -2 -1 -1 -1 -2 -2 -0 1 1 -2 -4 -4 -3 -5 -4 -4 -4 -5 -3 -6 -6 -5 -8 -9 -10 -11 -10 -8 -4
-1 -1 -2 -2 -2 -3 -2 1 1 1 -0 -0 3 1 1 -0 -2 -2 -2 -1 -0 2 1 1 -1 -5 -5 -5 -5 -4 -3 -1 -3 -4 -4 -4 -5 -6 -8 -9 -8 -7 -7 -7 -7
-4 -4 -4 -1 -1 -3 -4 -3 -2 -2 -2 -2 -0 -1 -2 -0 -2 -2 -3 -2 0 -0 -0 0 -5 -4 -6 -4 -4 -4 -2 -2 -2 -4 -2 -4 -6 -8 -9 -9 -9 -8 -7 -6 -4
-4 -5 -5 -1 -1 -1 -1 -1 -2 -2 -1 -0 -1 1 -3 -1 -1 -2 -2 -2 -2 -1 -4 -6 -4 -3 -3 -2 -2 -3 -4 -4 -1 -2 -3 -2 -4 -5 -8 -8 -8 -8 -8 -5 -3
-5 -4 -5 -2 -2 -2 -1 0 1 2 1 1 -1 -1 -1 -2 -1 -2 -2 -2 -2 -5 -4 -4 1 0 -3 -3 -4 -8 -8 -5 -1 -4 -4 -4 -3 -5 -6 -8 -8 -8 -7 -3 -3
-7 -5 -4 -4 -4 -4 -3 2 -0 -1 -0 -1 -1 -2 -1 -0 -1 -2 -2 -3 -4 -2 -4 -2 4 -1 -1 -4 -6 -2 -8 -4 -4 -4 -8 -7 -6 -6 -6 -6 -7 -7 -5 -3 -4
-10 -7 -5 -4 -5 -4 1 -2 -4 -4 -2 -2 -3 -3 -2 -1 -2 -3 -3 -4 -4 -2 -3 1 1 -2 -3 -3 -3 -2 -4 -3 -2 -3 -4 -5 -6 -6 -5 -2 -2 -2 -3 -3 -3
-10 -9 -8 -7 -3 -5 -4 -4 -6 -6 1 -1 -3 -5 -4 -3 -4 -4 -3 -3 -1 1 -0 -0 -2 -3 -4 -1 -1 -3 -2 -3 -2 -3 -2 -7 -8 -9 -3 -2 -2 -2 -2 -2 -2
-7 -9 -8 -8 -5 -8 -7 -8 -7 -5 -2 -4 -2 -4 -3 -3 -4 -5 -2 -3 -1 1 -1 1 1 2 1 1 -1 -0 -2 -1 -1 -0 -4 -4 -2 -6 -2 -1 -1 -1 -2 -2 -1
-6 -7 -7 -7 -8 -8 -8 -7 -4 1 -2 -1 -3 -3 -3 -4 -4 -4 -5 -3 -2 -0 0 1 -0 0 -0 -1 -1 -1 -2 0 3 2 -2 -2 -1 -1 -2 -4 -2 -2 -1 -1 0
-6 -8 -6 -5 -3 -7 -7 -3 1 -0 -5 -2 -1 -3 -3 -2 -4 -4 -3 -3 0 -3 0 1 1 -0 -0 1 -1 -0 0 2 -0 1 -2 1 -1 -1 -2 -2 -2 -2 -1 -0 -0
-8 -7 -7 -6 -4 -3 -4 -1 -1 -3 -1 -3 -2 -4 -3 -4 -4 -5 -4 -3 -4 -1 1 -1 -4 2 0 1 1 1 0 1 -5 5 1 -4 -5 -3 -4 -3 -2 -2 -1 -1 -1
-6 -4 -6 -8 -6 -4 1 2 1 1 -0 0 -3 -4 -3 -4 -5 -4 -3 -3 -3 -4 -0 2 2 1 0 -0 -1 -1 -2 -4 -2 -2 -5 -4 -5 -6 -6 -3 -2 -1 -1 -1 -2
-4 0 -5 -6 -3 1 -0 2 1 -0 -1 -1 -3 -5 -4 -6 -6 -5 -2 -2 -2 -6 -6 -6 1 0 1 0 -1 -1 -5 -5 -1 -8 -2 -3 -5 -0 -2 -3 -1 -1 -1 -1 -1
2 1 -5 -2 -1 -3 1 0 -1 -3 -2 -3 -3 -5 -6 -6 -7 -5 -1 -2 -3 -5 -6 -8 -5 -0 -0 1 1 -3 -2 -3 -3 -3 -4 -6 -3 0 -3 -1 -1 -1 -1 -1 -1
1 -0 -4 -3 -2 -1 1 -0 -2 -4 -4 -4 -4 -4 -6 -6 -6 -4 -1 -1 -2 -3 -5 -7 -4 -1 -2 -3 -4 -2 -2 -6 -5 -7 -6 -7 -4 -9 -4 -4 -3 -2 -2 -3 -3
-0 1 -1 -5 -1 -1 -2 -2 -3 -3 -3 -3 -4 -4 -6 -7 -5 -4 -0 -1 -2 -2 -3 -4 -6 -3 -4 -3 -4 -3 -4 -3 -5 -3 -5 -7 -9 -8 -5 -4 -4 -5 -5 -5 -5
-1 -1 -0 -3 -3 -4 -4 -5 -3 -5 -4 -5 -6 -7 -7 -7 -8 -5 -1 -1 -2 -2 -5 -4 -6 -6 -4 -5 -3 -5 -4 -3 -5 -1 -6 -6 -11 -10 -5 -4 -4 -4 -4 -4 -4
-4 -0 -0 0 -1 -3 -5 -5 -6 -4 -6 -7 -8 -8 -8 -9 -9 -6 -4 -2 -3 -3 -3 -4 -7 -6 -7 -7 -8 -6 -5 -3 -3 -4 -7 -10 -10 -6 -4 -4 -3 -2 -3 -3 -2
-4 0 1 -0 -0 -0 -2 -3 -2 -4 -3 -4 -5 -6 -7 -8 -8 -9 -8 -7 -6 -2 -3 -4 -9 -3 -3 -3 -5 -7 -8 -7 -3 -4 -4 -5 -5 -4 -4 -2 -3 -3 -3 -3 -3
-4 -1 1 -1 -1 -1 -0 -2 -2 -3 -3 -3 -3 -3 -4 -3 -2 -3 -3 -5 -7 -3 -3 -3 -4 0 2 1 1 3 1 -1 -6 -6 -5 -3 -5 -3 -2 -2 -3 -2 -3 -3 -4
Wind_Speed
17 15 12 8 6 6 6 9 9 9 9 12 14 14 12 14 13 14 15 8 9 8 7 9 13 15 13 7 6 2 3 2 2 3 4 8 4 6 8 10 5 3 6 6 18
20 16 10 5 5 4 3 6 8 8 8 12 13 12 12 12 12 15 12 9 12 11 11 12 13 16 7 5 6 4 4 5 0 2 1 7 5 7 5 9 5 10 10 12 14
21 20 14 2 1 2 2 3 3 5 7 10 11 11 12 12 5 15 12 14 10 10 12 13 9 11 5 10 6 6 4 1 3 3 3 6 8 3 5 2 5 14 16 14 13
21 22 18 12 7 5 3 1 3 4 6 9 10 12 13 13 5 4 8 12 12 12 16 14 10 12 4 6 13 4 4 4 1 3 3 3 5 4 1 4 6 12 10 10 12
21 23 19 16 12 9 5 4 3 6 5 8 9 12 18 13 2 3 3 10 12 15 19 12 9 13 3 8 10 3 3 6 5 4 6 5 5 3 3 9 7 11 10 8 8
18 22 21 19 18 16 11 8 3 8 9 10 11 14 16 5 1 7 5 12 13 16 18 15 6 12 9 7 8 9 8 9 4 4 3 4 2 1 5 13 8 8 10 10 8
12 14 15 15 13 19 22 14 20 10 10 10 14 14 15 12 5 4 6 10 13 15 17 13 5 5 5 5 10 17 6 3 2 3 2 3 2 7 11 13 8 8 7 9 10
6 7 7 7 8 9 10 12 28 21 16 12 9 7 4 11 4 5 11 10 10 11 5 8 4 1 3 8 6 4 5 4 2 4 2 3 5 1 16 14 12 11 10 9 11
5 6 7 6 6 7 7 4 7 8 8 6 6 5 3 9 5 7 10 11 15 10 8 9 4 1 2 5 4 2 3 4 2 3 2 4 5 6 14 12 14 13 15 15 13
4 3 4 3 5 5 6 6 4 3 2 3 5 3 4 5 6 9 9 13 13 13 9 5 2 3 4 5 5 6 4 3 5 5 2 3 7 5 13 15 15 13 11 15 15
4 2 3 3 2 1 1 2 1 2 4 4 8 6 7 7 11 11 13 15 13 9 4 3 6 2 5 4 4 3 4 6 1 2 3 6 7 10 13 17 14 15 11 15 15
5 4 0 5 6 6 5 4 4 2 2 2 5 6 5 1 6 6 8 8 8 4 6 6 2 2 5 5 3 5 6 1 2 3 2 3 9 10 7 9 19 16 15 19 19
5 1 4 4 3 7 6 3 2 1 2 4 8 5 3 4 3 4 4 8 6 5 4 6 2 5 2 5 5 4 7 3 3 3 0 3 7 2 3 9 10 8 14 17 16
5 4 2 3 3 4 3 3 4 3 4 8 5 4 4 3 4 4 5 3 6 6 5 5 3 3 3 5 4 2 5 2 5 4 2 3 4 5 3 3 3 8 12 15 12
11 4 4 4 2 3 5 3 3 2 5 7 4 3 5 4 4 6 7 6 6 4 5 1 4 6 7 3 2 2 2 3 2 4 4 1 4 7 2 3 6 11 11 14 14
14 14 3 5 4 5 4 2 2 6 1 4 2 2 2 4 2 3 4 8 6 7 8 3 3 3 1 1 3 3 4 6 5 3 2 2 5 5 3 3 3 9 16 19 17
8 15 9 4 4 3 3 2 5 6 3 3 2 3 4 4 3 2 3 4 3 5 3 5 3 2 3 1 3 4 5 3 4 3 5 3 3 7 2 3 2 10 20 20 18
5 9 15 5 2 2 1 4 8 2 2 2 2 1 4 3 2 1 3 3 7 5 4 5 4 3 5 2 2 1 4 4 5 3 4 1 5 5 3 0 2 6 22 21 17
3 4 23 8 3 2 1 6 4 3 3 3 1 2 2 0 2 3 4 2 3 5 5 4 1 1 2 2 2 1 1 3 5 3 3 3 4 3 1 0 2 11 19 17 14
6 4 22 8 7 5 5 4 1 3 4 2 2 1 2 3 1 2 2 3 0 1 1 1 4 0 1 1 1 1 2 3 3 3 3 5 4 5 5 4 3 5 10 10 10
7 4 17 7 6 7 4 3 3 1 2 2 5 2 3 2 2 2 1 2 4 2 2 1 3 2 2 4 6 1 0 2 3 4 4 2 6 5 7 5 7 8 7 7 10
5 4 14 6 6 5 3 3 4 3 5 1 2 5 3 5 4 3 3 2 4 3 1 2 4 3 4 0 1 1 3 4 4 4 2 3 6 3 6 7 6 5 2 2 5
4 4 12 8 4 2 0 3 4 5 4 6 3 2 1 2 3 2 4 2 3 3 2 1 1 2 6 4 3 3 4 2 4 3 5 5 5 1 6 8 10 10 11 11 8
3 3 6 8 6 6 3 2 2 4 3 3 3 3 2 3 5 3 2 1 2 2 1 1 1 4 6 3 4 3 4 4 5 3 3 6 3 3 5 5 8 12 13 11 11
4 2 2 3 6 4 4 1 3 1 1 2 4 4 4 3 3 2 2 1 0 1 1 3 3 0 4 5 3 6 6 8 8 7 7 4 7 3 3 5 9 13 13 14 16
3 3 1 2 3 5 3 1 1 2 1 2 4 3 2 3 2 0 1 2 3 1 1 3 3 2 4 3 7 6 8 9 12 11 10 10 15 6 9 13 12 13 13 14 14
4 3 2 1 1 3 1 2 2 1 2 1 1 2 1 3 0 2 2 4 4 6 5 4 3 2 4 2 3 7 9 11 6 5 8 9 7 8 5 9 10 11 12 11 10
Wind_Direction
344 328 317 320 311 305 257 232 240 238 235 212 215 225 230 219 221 233 241 235 236 224 199 190 189 170 164 196 190 179 73 187 271 15 174 151 105 78 101 123 106 105 158 158 171
5 359 325 285 327 324 285 232 232 238 220 205 204 218 218 211 221 246 234 233 231 222 190 178 182 167 173 196 190 138 124 209 241 23 119 125 125 126 120 133 108 104 130 151 171
22 27 27 68 75 26 95 122 179 193 190 188 198 202 200 196 204 261 241 220 228 220 194 174 179 178 202 170 196 182 177 155 10 33 25 125 99 116 113 217 188 183 170 177 187
38 41 46 56 65 59 81 122 205 191 186 191 187 189 187 172 175 308 199 213 223 219 189 188 207 198 217 167 200 155 97 105 63 25 78 75 128 107 70 146 111 177 177 185 201
59 49 50 47 52 50 39 50 80 187 141 157 164 174 166 176 223 321 245 222 220 200 194 176 186 199 223 188 185 178 141 93 110 92 84 121 76 129 141 152 155 143 173 195 206
57 57 59 55 47 51 50 53 100 162 114 106 146 171 169 166 11 315 270 210 203 193 193 175 151 223 318 192 160 173 121 122 126 110 90 113 94 154 208 185 194 204 191 194 208
41 46 55 50 40 53 61 68 58 137 178 129 132 161 182 174 170 245 240 190 190 186 181 184 248 255 322 138 127 131 95 81 168 162 126 129 248 228 174 184 190 175 180 182 195
7 14 23 29 24 34 61 52 63 66 77 86 142 184 217 183 152 196 157 150 166 158 213 195 229 268 296 124 87 101 81 120 242 163 195 141 247 277 190 185 185 182 186 199 207
354 9 19 57 43 16 55 22 28 73 67 55 46 44 111 167 168 160 168 176 161 157 176 192 162 93 125 89 51 0 179 167 210 202 157 178 234 195 177 195 200 205 207 201 191
303 312 15 79 82 67 51 56 32 60 99 38 345 345 129 146 179 163 190 153 149 150 134 164 104 57 22 70 182 190 208 175 173 219 191 195 254 249 203 205 211 209 213 185 185
15 11 205 189 156 333 307 126 353 308 252 278 342 71 98 121 133 148 145 158 150 148 117 177 75 164 242 231 267 210 230 128 144 201 159 230 263 255 247 221 221 213 201 170 170
10 37 88 227 230 234 222 231 274 132 306 120 101 83 102 103 127 142 190 174 151 155 128 41 116 274 284 256 279 352 168 80 82 171 137 360 277 263 214 220 227 222 181 161 163
326 24 69 91 136 159 168 179 153 242 132 74 95 83 52 90 93 134 170 178 146 89 93 128 214 308 321 33 48 22 102 157 143 160 34 347 300 291 38 121 140 124 172 173 180
1 283 205 157 149 158 195 227 305 321 74 340 359 38 32 90 40 49 75 106 47 106 93 78 322 339 43 74 3 78 332 51 66 84 192 109 268 304 191 141 154 160 152 164 176
20 47 245 222 206 239 279 290 283 178 60 300 344 37 55 70 136 29 54 79 85 71 89 280 23 21 57 343 317 154 57 74 56 91 66 305 78 268 110 216 220 202 178 172 178
55 35 4 269 239 242 249 266 151 43 324 355 327 334 78 47 43 69 60 83 120 72 44 103 70 59 78 357 34 148 71 32 41 73 43 291 127 285 234 264 173 185 172 161 166
6 15 16 353 290 271 237 171 41 85 293 358 326 13 87 22 52 46 63 35 111 86 25 35 17 12 25 28 340 66 64 1 358 8 214 285 51 245 276 354 90 172 168 165 178
332 14 25 21 321 336 198 61 69 260 36 253 287 39 77 9 26 33 130 71 25 65 109 137 329 4 343 70 170 102 145 153 200 193 258 19 235 262 176 160 88 170 170 174 190
27 22 16 20 31 87 354 51 163 185 266 358 267 61 64 73 122 88 65 76 29 14 119 133 335 209 51 343 75 217 38 172 109 9 59 239 276 307 181 324 112 142 169 185 199
35 34 9 44 62 16 74 114 79 315 328 296 78 73 90 19 90 107 81 322 87 31 30 156 95 234 245 359 332 199 199 59 358 163 253 297 275 232 231 210 203 154 190 200 217
35 68 13 36 21 50 100 119 117 355 330 8 358 42 96 134 73 75 62 332 23 322 346 67 106 278 62 205 187 109 249 70 113 144 173 261 264 220 198 203 187 207 209 222 243
34 48 11 1 47 41 44 354 351 349 6 313 67 33 35 25 43 89 130 62 357 334 90 33 121 160 226 112 39 258 230 157 129 220 216 145 275 268 161 170 123 105 117 352 354
35 11 19 40 86 29 359 38 44 18 13 1 27 10 48 97 108 78 86 23 26 39 144 294 185 51 341 352 355 231 226 171 112 79 214 139 263 124 93 80 72 69 62 51 41
38 19 19 39 90 126 128 90 28 13 23 16 350 325 351 44 21 131 108 123 34 91 90 61 82 162 194 200 133 210 226 191 132 133 192 227 224 162 143 131 83 76 70 52 28
34 98 58 347 357 13 112 171 148 99 75 12 24 47 10 10 17 70 122 144 23 162 142 116 199 88 265 249 233 218 208 191 193 203 183 228 205 177 152 123 97 89 68 55 48
46 31 118 116 317 342 12 333 119 179 114 195 140 180 150 126 120 49 142 204 235 12 1 14 308 32 296 257 205 249 239 219 228 242 249 270 277 146 135 123 101 90 81 63 46
43 16 330 248 102 98 288 359 341 360 338 35 51 42 195 170 258 231 215 221 176 160 188 156 139 91 271 319 351 289 245 207 197 198 203 226 222 155 118 111 101 84 64 50 34
Height
1489 1487 1485 1485 1484 1483 1483 1484 1486 1487 1488 1491 1493 1497 1499 1502 1504 1506 1507 1510 1510 1512 1513 1515 1517 1519 1522 1524 1525 1526 1535 1538 1529 1529 1525 1524 1524 1527 1530 1532 1534 1536 1538 1538 1540
1488 1485 1482 1483 1483 1483 1482 1483 1484 1485 1487 1489 1492 1495 1498 1500 1503 1503 1507 1508 1509 1511 1514 1515 1517 1519 1522 1523 1524 1525 1536 1529 1525 1524 1524 1524 1525 1527 1531 1532 1536 1537 1539 1540 1541
1489 1485 1481 1482 1483 1483 1483 1482 1483 1484 1485 1487 1490 1493 1496 1499 1503 1500 1503 1505 1508 1511 1513 1515 1518 1520 1521 1522 1523 1523 1530 1523 1525 1524 1523 1524 1526 1528 1531 1534 1533 1534 1537 1539 1541
1492 1489 1487 1486 1485 1485 1484 1484 1483 1483 1485 1486 1488 1491 1495 1499 1503 1499 1500 1503 1507 1510 1512 1513 1516 1519 1519 1520 1520 1523 1521 1522 1525 1524 1523 1525 1526 1528 1531 1533 1532 1533 1536 1538 1540
1495 1493 1492 1490 1489 1487 1485 1485 1483 1484 1485 1486 1488 1491 1495 1499 1499 1499 1501 1503 1506 1508 1510 1512 1515 1518 1517 1517 1519 1521 1522 1522 1524 1525 1525 1526 1527 1528 1531 1532 1534 1535 1537 1538 1539
1500 1497 1495 1494 1492 1491 1489 1487 1485 1485 1486 1487 1489 1493 1497 1499 1499 1499 1499 1501 1504 1507 1510 1511 1514 1516 1516 1515 1518 1518 1521 1524 1525 1526 1526 1526 1528 1529 1529 1531 1532 1533 1535 1537 1538
1503 1501 1499 1497 1496 1496 1492 1490 1486 1484 1487 1489 1492 1494 1496 1498 1498 1499 1500 1501 1504 1506 1509 1511 1514 1516 1515 1514 1515 1518 1525 1525 1526 1526 1526 1527 1530 1528 1526 1529 1530 1531 1533 1535 1537
1503 1502 1501 1499 1497 1496 1495 1494 1493 1491 1491 1493 1495 1496 1495 1497 1496 1498 1500 1501 1504 1507 1509 1512 1513 1514 1515 1513 1516 1520 1525 1534 1527 1526 1526 1528 1533 1522 1524 1526 1528 1529 1531 1533 1535
1504 1503 1502 1501 1499 1496 1497 1496 1496 1495 1494 1495 1495 1495 1495 1497 1497 1499 1500 1501 1504 1507 1510 1512 1513 1514 1514 1518 1527 1524 1536 1529 1530 1526 1526 1529 1529 1522 1523 1524 1526 1527 1528 1530 1533
1503 1503 1502 1502 1501 1499 1497 1498 1497 1496 1496 1495 1495 1499 1497 1498 1498 1499 1501 1504 1506 1508 1511 1513 1513 1517 1519 1527 1542 1533 1531 1525 1529 1526 1526 1528 1527 1521 1521 1522 1522 1525 1526 1528 1530
1503 1502 1501 1501 1501 1500 1499 1499 1501 1500 1497 1495 1495 1496 1495 1498 1499 1500 1503 1505 1507 1508 1512 1513 1523 1530 1523 1522 1519 1517 1521 1524 1527 1524 1526 1528 1526 1520 1517 1519 1520 1522 1525 1526 1529
1503 1501 1501 1500 1500 1499 1499 1498 1498 1499 1498 1496 1498 1497 1498 1498 1501 1501 1503 1506 1506 1510 1509 1518 1525 1521 1520 1518 1516 1520 1521 1527 1526 1524 1526 1526 1523 1515 1515 1515 1516 1518 1521 1523 1526
1502 1502 1501 1500 1499 1498 1498 1499 1498 1498 1498 1500 1500 1499 1500 1500 1500 1502 1503 1502 1504 1507 1511 1522 1522 1520 1520 1524 1520 1528 1525 1526 1523 1524 1525 1528 1527 1513 1513 1514 1516 1518 1519 1522 1523
1502 1501 1500 1500 1502 1499 1499 1499 1498 1498 1507 1505 1502 1502 1502 1501 1502 1501 1501 1502 1504 1513 1516 1523 1521 1521 1520 1527 1528 1525 1527 1524 1525 1532 1545 1529 1548 1523 1515 1517 1517 1518 1519 1521 1523
1500 1499 1500 1499 1499 1499 1499 1498 1496 1498 1537 1508 1503 1503 1502 1502 1503 1502 1501 1501 1508 1514 1516 1531 1527 1528 1529 1532 1529 1529 1528 1528 1529 1534 1543 1535 1559 1526 1517 1518 1518 1518 1519 1521 1523
1500 1499 1499 1499 1498 1498 1496 1496 1497 1512 1533 1511 1505 1504 1503 1502 1503 1503 1503 1505 1509 1513 1519 1528 1528 1530 1532 1531 1529 1529 1530 1535 1540 1548 1568 1540 1553 1538 1523 1514 1513 1516 1519 1520 1523
1500 1499 1497 1497 1497 1497 1496 1496 1512 1526 1510 1511 1508 1504 1504 1506 1506 1505 1507 1511 1515 1530 1541 1531 1533 1532 1532 1532 1531 1532 1543 1566 1563 1569 1563 1546 1556 1529 1516 1514 1513 1514 1518 1520 1521
1501 1500 1497 1496 1495 1496 1496 1499 1519 1513 1512 1507 1506 1505 1508 1508 1508 1507 1510 1516 1513 1514 1535 1546 1552 1536 1534 1535 1535 1533 1541 1559 1552 1561 1560 1543 1546 1529 1515 1514 1514 1514 1516 1517 1519
1501 1500 1498 1497 1495 1496 1498 1516 1515 1513 1510 1510 1506 1506 1508 1507 1507 1509 1515 1519 1520 1518 1525 1532 1537 1536 1535 1535 1535 1534 1546 1537 1547 1548 1558 1551 1526 1517 1514 1515 1514 1513 1515 1517 1519
1501 1500 1500 1498 1497 1497 1500 1515 1515 1512 1511 1509 1508 1505 1509 1508 1508 1508 1515 1520 1520 1518 1518 1522 1536 1535 1535 1535 1535 1534 1536 1547 1556 1544 1542 1546 1527 1533 1518 1516 1515 1516 1516 1518 1519
1501 1500 1502 1501 1500 1499 1515 1513 1513 1513 1513 1512 1509 1506 1507 1508 1508 1512 1519 1522 1520 1519 1518 1519 1525 1539 1536 1537 1535 1539 1538 1537 1540 1547 1548 1547 1542 1515 1516 1513 1514 1513 1515 1516 1517
1503 1504 1503 1502 1504 1509 1518 1516 1514 1513 1511 1511 1511 1511 1510 1512 1512 1514 1518 1520 1520 1520 1520 1522 1528 1549 1533 1532 1532 1531 1530 1533 1547 1537 1546 1551 1544 1508 1510 1512 1513 1515 1516 1517 1517
1507 1507 1505 1502 1515 1520 1518 1518 1518 1516 1516 1514 1514 1513 1510 1513 1518 1517 1521 1522 1521 1521 1523 1523 1528 1552 1538 1537 1534 1533 1530 1527 1533 1542 1540 1545 1531 1511 1512 1514 1515 1514 1515 1515 1514
1509 1513 1510 1508 1509 1512 1515 1516 1518 1518 1517 1516 1517 1515 1514 1515 1514 1517 1520 1522 1521 1521 1522 1522 1527 1530 1537 1525 1528 1531 1527 1528 1534 1557 1539 1533 1516 1513 1513 1515 1515 1516 1516 1515 1514
1511 1514 1515 1519 1515 1513 1511 1513 1515 1516 1516 1516 1517 1518 1519 1519 1517 1519 1519 1521 1521 1521 1522 1523 1528 1530 1526 1524 1523 1522 1520 1525 1534 1524 1526 1515 1517 1516 1513 1516 1516 1516 1515 1514 1514
1514 1515 1515 1514 1515 1516 1516 1516 1514 1516 1516 1515 1514 1514 1514 1518 1521 1520 1521 1522 1522 1524 1524 1526 1529 1527 1526 1518 1521 1521 1518 1519 1518 1514 1517 1515 1513 1511 1513 1514 1515 1516 1517 1517 1517
1516 1516 1516 1514 1512 1515 1519 1519 1518 1518 1518 1516 1516 1516 1515 1517 1517 1517 1517 1517 1518 1520 1523 1525 1527 1532 1527 1518 1519 1522 1504 1506 1506 1504 1505 1513 1505 1509 1514 1515 1517 1517 1517 1517 1516